• In Uzbekistan
  • List of Countries
  • For 7 days
  • Water Temperature
  • Satellite Maps
  • Weather Map
  • Weather Widgets
  • user-avatar
    Login

    Hourly Weather Islamabad

    Today, 20 August, Monday

    Time Temperature Precipitation Wind Pressure Humidity
    00:00 +31°C° 0 mm 2 mps 706 mmHg 62%
    01:00 +31°C° 0 mm 2 mps 707 mmHg 62%
    02:00 +31°C° 0 mm 3 mps 707 mmHg 61%
    03:00 +30°C° 0 mm 2 mps 707 mmHg 61%
    04:00 +30°C° 0 mm 2 mps 707 mmHg 60%
    05:00 +30°C° 0 mm 3 mps 707 mmHg 58%
    06:00 +31°C° 0.1 mm 2 mps 707 mmHg 56%
    07:00 +32°C° 0.1 mm 2 mps 708 mmHg 54%
    08:00 +34°C° 0.1 mm 2 mps 708 mmHg 52%
    09:00 +36°C° 0 mm 2 mps 708 mmHg 49%
    10:00 +37°C° 0 mm 2 mps 708 mmHg 46%
    11:00 +38°C° 0 mm 2 mps 709 mmHg 44%
    12:00 +39°C° 0.1 mm 2 mps 708 mmHg 42%
    13:00 +39°C° 0.1 mm 1 mps 708 mmHg 41%
    14:00 +40°C° 0.1 mm 1 mps 708 mmHg 39%
    15:00 +40°C° 0.1 mm 1 mps 708 mmHg 39%
    16:00 +40°C° 0.1 mm 1 mps 708 mmHg 39%
    17:00 +40°C° 0.1 mm 1 mps 707 mmHg 39%
    18:00 +37°C° 0 mm 1 mps 707 mmHg 42%
    19:00 +36°C° 0 mm 1 mps 707 mmHg 45%
    20:00 +36°C° 0 mm 2 mps 707 mmHg 48%
    21:00 +35°C° 0 mm 2 mps 707 mmHg 50%
    22:00 +35°C° 0 mm 2 mps 707 mmHg 52%
    23:00 +34°C° 0 mm 3 mps 707 mmHg 55%

    Tomorrow, 21 August, Tuesday

    Time Temperature Precipitation Wind Pressure Humidity
    00:00 +34°C° 0 mm 3 mps 707 mmHg 55%
    01:00 +33°C° 0 mm 3 mps 707 mmHg 56%
    02:00 +33°C° 0 mm 3 mps 707 mmHg 57%
    03:00 +33°C° 0.1 mm 3 mps 707 mmHg 57%
    04:00 +31°C° 0.1 mm 3 mps 707 mmHg 57%
    05:00 +31°C° 0.1 mm 3 mps 707 mmHg 58%
    06:00 +32°C° 0 mm 2 mps 707 mmHg 57%
    07:00 +34°C° 0 mm 2 mps 707 mmHg 56%
    08:00 +34°C° 0 mm 2 mps 707 mmHg 55%
    09:00 +35°C° 0.1 mm 2 mps 708 mmHg 54%
    10:00 +36°C° 0.1 mm 3 mps 708 mmHg 52%
    11:00 +37°C° 0.1 mm 3 mps 708 mmHg 51%
    12:00 +38°C° 0.1 mm 2 mps 707 mmHg 48%
    13:00 +39°C° 0.1 mm 2 mps 707 mmHg 46%
    14:00 +39°C° 0.1 mm 2 mps 707 mmHg 43%
    15:00 +39°C° 0.1 mm 1 mps 706 mmHg 43%
    16:00 +40°C° 0.1 mm 1 mps 706 mmHg 42%
    17:00 +40°C° 0.1 mm 1 mps 706 mmHg 41%
    18:00 +38°C° 0 mm 2 mps 706 mmHg 45%
    19:00 +37°C° 0 mm 2 mps 706 mmHg 49%
    20:00 +35°C° 0 mm 2 mps 706 mmHg 53%
    21:00 +35°C° 0 mm 3 mps 706 mmHg 57%
    22:00 +34°C° 0 mm 3 mps 706 mmHg 60%
    23:00 +33°C° 0 mm 3 mps 706 mmHg 64%

    Day after tomorrow, 22 August, Wednesday

    Time Temperature Precipitation Wind Pressure Humidity
    00:00 +33°C° 0 mm 3 mps 706 mmHg 65%
    01:00 +31°C° 0 mm 3 mps 706 mmHg 67%
    02:00 +31°C° 0 mm 3 mps 706 mmHg 68%
    03:00 +31°C° 0.4 mm 3 mps 706 mmHg 68%
    04:00 +30°C° 0.4 mm 3 mps 706 mmHg 69%
    05:00 +30°C° 0.4 mm 3 mps 706 mmHg 69%
    06:00 +31°C° 0 mm 3 mps 706 mmHg 66%
    07:00 +33°C° 0 mm 3 mps 707 mmHg 63%
    08:00 +34°C° 0 mm 2 mps 707 mmHg 60%
    09:00 +35°C° 0 mm 3 mps 707 mmHg 57%
    10:00 +36°C° 0 mm 3 mps 707 mmHg 55%
    11:00 +37°C° 0 mm 3 mps 708 mmHg 52%
    12:00 +38°C° 0.1 mm 3 mps 707 mmHg 49%
    13:00 +39°C° 0.1 mm 2 mps 707 mmHg 46%
    14:00 +40°C° 0.1 mm 2 mps 706 mmHg 43%
    15:00 +40°C° 0 mm 2 mps 706 mmHg 43%
    16:00 +40°C° 0 mm 2 mps 706 mmHg 42%
    17:00 +40°C° 0 mm 1 mps 705 mmHg 42%
    18:00 +38°C° 0 mm 2 mps 705 mmHg 46%
    19:00 +37°C° 0 mm 2 mps 706 mmHg 49%
    20:00 +36°C° 0 mm 2 mps 706 mmHg 52%
    21:00 +35°C° 0 mm 3 mps 706 mmHg 55%
    22:00 +34°C° 0 mm 3 mps 706 mmHg 57%
    23:00 +34°C° 0 mm 3 mps 706 mmHg 59%

    23 August, Thursday

    Time Temperature Precipitation Wind Pressure Humidity
    00:00 +33°C° 0.2 mm 3 mps 706 mmHg 63%
    01:00 +31°C° 0.2 mm 3 mps 706 mmHg 66%
    02:00 +30°C° 0.2 mm 3 mps 706 mmHg 70%
    03:00 +30°C° 0.2 mm 3 mps 706 mmHg 69%
    04:00 +30°C° 0.2 mm 3 mps 706 mmHg 68%
    05:00 +30°C° 0.2 mm 3 mps 706 mmHg 67%
    06:00 +30°C° 0.1 mm 3 mps 706 mmHg 65%
    07:00 +31°C° 0.1 mm 3 mps 706 mmHg 62%
    08:00 +33°C° 0.1 mm 3 mps 707 mmHg 60%
    09:00 +35°C° 0 mm 3 mps 707 mmHg 57%
    10:00 +36°C° 0 mm 3 mps 707 mmHg 53%
    11:00 +37°C° 0 mm 3 mps 707 mmHg 50%
    12:00 +38°C° 0 mm 3 mps 707 mmHg 48%
    13:00 +39°C° 0 mm 3 mps 707 mmHg 46%
    14:00 +39°C° 0 mm 3 mps 706 mmHg 43%
    15:00 +39°C° 0 mm 2 mps 706 mmHg 44%
    16:00 +39°C° 0 mm 2 mps 706 mmHg 45%
    17:00 +39°C° 0 mm 2 mps 705 mmHg 45%
    18:00 +38°C° 0 mm 2 mps 706 mmHg 49%
    19:00 +37°C° 0 mm 2 mps 706 mmHg 52%
    20:00 +35°C° 0 mm 3 mps 706 mmHg 55%
    21:00 +35°C° 0.1 mm 3 mps 706 mmHg 58%
    22:00 +34°C° 0.1 mm 3 mps 706 mmHg 60%
    23:00 +33°C° 0.1 mm 4 mps 706 mmHg 63%

    24 August, Friday

    Time Temperature Precipitation Wind Pressure Humidity
    00:00 +32°C° 1.2 mm 4 mps 706 mmHg 65%
    01:00 +30°C° 1.2 mm 3 mps 706 mmHg 68%
    02:00 +30°C° 1.2 mm 3 mps 706 mmHg 70%
    03:00 +29°C° 0.1 mm 3 mps 706 mmHg 69%
    04:00 +29°C° 0.1 mm 3 mps 706 mmHg 68%
    05:00 +29°C° 0.1 mm 2 mps 706 mmHg 66%
    06:00 +30°C° 0.1 mm 2 mps 706 mmHg 63%
    07:00 +31°C° 0.1 mm 2 mps 706 mmHg 60%
    08:00 +32°C° 0.1 mm 2 mps 707 mmHg 57%
    09:00 +34°C° 0 mm 2 mps 707 mmHg 55%
    10:00 +36°C° 0 mm 2 mps 707 mmHg 53%
    11:00 +37°C° 0 mm 2 mps 707 mmHg 50%
    12:00 +38°C° 0 mm 2 mps 707 mmHg 48%
    13:00 +38°C° 0 mm 2 mps 706 mmHg 45%
    14:00 +39°C° 0 mm 2 mps 706 mmHg 43%
    15:00 +39°C° 0 mm 2 mps 706 mmHg 43%
    16:00 +39°C° 0 mm 2 mps 705 mmHg 43%
    17:00 +39°C° 0 mm 2 mps 705 mmHg 44%
    18:00 +38°C° 0 mm 2 mps 705 mmHg 48%
    19:00 +36°C° 0 mm 2 mps 705 mmHg 51%
    20:00 +35°C° 0 mm 2 mps 706 mmHg 55%
    21:00 +34°C° 0.1 mm 3 mps 706 mmHg 57%
    22:00 +34°C° 0.1 mm 3 mps 706 mmHg 59%
    23:00 +33°C° 0.1 mm 4 mps 706 mmHg 61%

    25 August, Saturday

    Time Temperature Precipitation Wind Pressure Humidity
    00:00 +32°C° 1.3 mm 4 mps 706 mmHg 64%
    01:00 +30°C° 1.3 mm 3 mps 706 mmHg 68%
    02:00 +29°C° 1.3 mm 3 mps 706 mmHg 71%
    03:00 +29°C° 0.1 mm 3 mps 706 mmHg 69%
    04:00 +29°C° 0.1 mm 3 mps 706 mmHg 67%
    05:00 +29°C° 0.1 mm 3 mps 706 mmHg 65%
    06:00 +30°C° 0.2 mm 2 mps 706 mmHg 61%
    07:00 +31°C° 0.2 mm 2 mps 707 mmHg 58%
    08:00 +32°C° 0.2 mm 2 mps 707 mmHg 55%
    09:00 +34°C° 0 mm 2 mps 707 mmHg 53%
    10:00 +35°C° 0 mm 2 mps 707 mmHg 51%
    11:00 +37°C° 0 mm 2 mps 707 mmHg 49%
    12:00 +37°C° 0 mm 2 mps 707 mmHg 47%
    13:00 +38°C° 0 mm 2 mps 706 mmHg 44%
    14:00 +39°C° 0 mm 1 mps 705 mmHg 42%
    15:00 +39°C° 0 mm 1 mps 705 mmHg 42%
    16:00 +39°C° 0 mm 1 mps 705 mmHg 42%
    17:00 +39°C° 0 mm 1 mps 705 mmHg 42%
    18:00 +36°C° 0.1 mm 1 mps 705 mmHg 46%
    19:00 +36°C° 0.1 mm 2 mps 705 mmHg 50%
    20:00 +34°C° 0.1 mm 2 mps 705 mmHg 53%
    21:00 +34°C° 0.2 mm 2 mps 705 mmHg 55%
    22:00 +33°C° 0.2 mm 3 mps 705 mmHg 57%
    23:00 +31°C° 0.2 mm 3 mps 706 mmHg 59%
    Show more